Temperature
15 15 15 15 15 15 15 15 15 15 15 15 15 15 15 15 15 15 15 15 15 15 15 15 15 14 14 14 14 14 14 14 14 15 15 15 14 14 14 14 14 14 14
15 15 15 15 15 15 15 15 15 15 15 15 15 15 15 15 15 15 15 15 14 14 14 14 14 14 14 14 14 14 14 14 14 14 14 14 14 14 14 14 14 14 14
15 15 15 15 14 14 14 14 14 14 14 14 14 15 15 15 15 15 14 14 14 14 14 14 14 14 14 14 14 14 14 14 14 14 14 14 14 14 14 14 14 14 14
15 15 14 14 14 14 14 14 14 14 14 14 14 14 14 14 14 14 14 14 14 14 14 14 14 14 14 14 14 14 14 14 14 14 14 14 14 14 14 14 14 14 14
15 15 14 14 14 14 14 14 14 14 14 14 14 14 14 14 14 14 14 14 14 14 14 13 13 13 13 13 13 13 14 14 14 14 14 14 14 14 13 13 13 13 13
14 14 14 14 14 14 14 14 14 14 14 14 14 14 14 14 14 14 14 14 14 14 13 13 13 13 13 13 13 13 13 14 14 14 14 14 14 13 13 13 13 13 13
14 14 14 14 14 14 14 14 14 14 14 13 14 14 14 14 14 14 14 13 13 13 13 13 13 13 13 13 13 13 13 13 14 13 13 13 13 13 13 13 13 13 13
13 13 13 13 13 13 13 13 13 13 13 13 13 13 13 13 13 13 13 13 13 13 13 13 13 13 13 13 13 13 13 13 13 13 13 13 13 13 13 13 13 13 13
13 13 13 13 13 13 13 13 13 13 13 13 13 13 13 13 13 13 13 13 13 12 12 12 12 13 13 13 13 13 13 13 13 13 13 13 12 12 12 12 12 12 12
12 12 12 12 12 12 12 12 13 13 13 13 13 13 13 13 13 12 12 12 12 12 12 12 12 12 12 12 12 12 13 12 12 12 12 12 12 12 12 12 12 12 12
12 12 12 12 12 12 12 12 12 12 12 12 13 13 13 13 12 12 12 12 12 12 12 12 12 12 12 12 12 12 12 12 12 12 12 12 12 12 12 11 11 11 11
12 12 12 12 12 12 12 12 12 12 12 12 12 12 12 12 12 12 12 12 12 12 12 12 12 12 12 12 12 12 12 12 12 12 12 11 11 11 11 11 11 11 11
11 11 11 11 11 11 11 11 11 11 11 11 12 12 12 12 12 12 12 11 11 11 11 11 11 11 11 11 11 11 11 11 11 11 11 11 11 11 11 11 11 11 11
11 11 11 11 11 11 11 11 11 11 11 11 11 11 11 11 11 11 11 11 11 11 11 11 11 11 11 11 11 11 11 11 11 11 11 11 11 11 11 10 10 11 11
10 10 10 11 11 11 11 10 10 10 10 10 11 11 11 11 11 11 11 11 11 11 11 11 11 11 11 11 11 11 10 10 10 10 10 10 10 10 10 10 10 10 10
10 10 10 10 10 10 10 10 10 10 10 10 10 10 10 10 10 10 10 10 10 10 10 10 10 10 10 10 10 10 10 10 10 10 10 10 10 10 10 10 10 10 9
10 10 10 10 10 10 10 10 10 10 9 9 9 10 10 10 10 10 10 10 10 10 10 10 10 10 10 10 10 10 10 10 10 10 10 10 10 9 9 9 9 9 9
9 9 9 9 9 9 9 9 9 9 9 9 9 9 9 9 9 9 9 9 9 9 9 9 9 9 9 9 9 9 9 9 9 9 9 9 9 9 9 9 9 9 8
9 9 9 9 9 9 9 9 9 9 9 9 9 9 9 8 9 9 9 9 9 9 9 9 9 9 9 9 9 9 9 9 9 9 9 8 8 8 8 8 8 8 8
8 8 8 9 9 9 8 8 8 8 8 8 8 8 8 8 8 8 8 8 8 8 8 8 8 8 8 8 8 8 8 8 8 8 8 8 8 8 8 8 8 8 8
8 8 8 8 8 8 8 8 8 8 8 8 8 8 8 8 8 8 8 8 8 8 7 7 7 7 7 7 7 7 8 7 7 7 7 7 7 7 7 7 7 7 7
8 8 8 8 8 8 8 8 8 8 8 8 8 7 7 7 7 7 7 7 7 7 7 7 7 7 7 6 6 6 6 6 6 7 7 7 6 6 6 6 6 7 6
8 8 8 7 7 7 7 7 7 7 7 7 7 7 7 7 7 7 6 6 6 6 6 6 6 6 6 6 5 5 5 5 5 5 6 6 6 6 6 6 6 6 6
7 7 7 7 7 7 7 7 7 7 7 7 6 6 6 6 6 6 6 6 6 6 6 6 6 5 5 5 5 5 5 4 4 4 5 5 5 5 5 5 5 5 5
7 7 7 7 7 6 6 6 6 6 6 6 6 6 6 6 6 5 5 5 5 5 5 5 5 5 5 5 4 4 4 4 4 4 4 4 5 5 5 5 5 4 4
6 6 6 6 6 6 6 6 5 5 5 5 5 5 5 5 5 5 5 5 5 5 5 5 4 4 4 4 4 4 3 3 3 3 3 3 4 4 4 4 4 4 4
Wind_Speed
2 2 5 8 9 9 10 10 10 10 11 12 12 12 12 12 12 11 11 11 12 11 11 11 11 11 12 12 12 13 13 13 13 13 13 13 13 13 13 13 12 11 13
3 4 6 8 9 9 9 10 10 10 11 11 11 12 11 10 11 11 11 11 11 11 11 10 11 11 11 11 12 12 12 12 12 13 12 11 11 12 12 11 11 10 12
3 4 6 8 9 9 9 9 10 9 10 10 10 11 11 10 10 10 10 10 10 10 10 10 11 11 11 11 11 11 11 12 12 12 11 10 9 10 10 10 10 10 11
5 5 6 8 9 9 9 9 8 8 9 8 9 10 10 9 10 10 10 9 10 10 10 10 10 11 11 11 10 10 11 11 11 11 10 9 8 8 9 9 9 9 9
5 5 7 9 9 9 9 8 8 7 8 8 8 8 9 9 9 9 9 9 10 9 9 10 10 10 10 10 10 10 10 11 10 10 9 8 7 7 8 8 8 8 8
4 6 7 9 9 9 9 9 8 7 7 7 8 8 8 9 9 9 8 9 9 9 8 9 9 9 9 9 9 9 10 10 10 9 8 7 5 5 6 6 6 6 6
4 5 6 8 8 8 8 8 8 7 7 7 7 8 8 8 8 8 8 8 8 8 8 8 9 8 8 8 8 8 8 9 9 8 7 6 5 5 5 5 4 4 4
4 5 5 6 7 7 8 8 8 8 7 6 6 7 7 8 8 7 7 8 8 7 7 7 8 8 8 7 8 8 8 8 8 6 6 5 4 4 4 3 4 3 3
5 4 4 4 5 6 7 7 7 7 7 6 6 6 6 7 7 7 7 7 7 7 7 7 7 7 7 7 7 7 7 8 8 5 4 4 4 4 3 3 3 3 2
4 3 3 4 5 5 6 7 7 7 6 6 6 6 6 6 7 6 6 6 6 6 6 6 6 6 7 7 7 6 7 7 6 5 4 3 4 3 2 2 2 2 2
2 2 3 3 4 4 5 5 6 6 6 6 6 7 7 6 6 6 5 5 5 5 5 5 5 6 6 6 6 6 6 5 5 4 3 3 3 3 3 2 2 2 2
1 0 1 2 3 4 4 5 6 6 6 7 6 7 7 6 6 6 6 6 5 5 5 5 5 5 6 6 5 5 5 4 4 3 2 3 3 3 3 3 3 2 2
2 0 0 1 2 3 3 4 4 5 5 6 6 6 6 6 6 6 5 5 5 5 5 5 5 5 5 5 4 4 4 3 3 2 3 3 4 4 4 3 3 3 3
3 2 1 1 2 3 4 3 4 4 4 4 4 5 5 4 4 4 4 4 4 4 4 4 4 4 4 3 3 3 3 2 2 2 3 4 4 4 4 4 4 3 4
3 3 2 2 2 3 3 3 3 3 3 3 4 4 5 4 3 3 2 2 3 3 3 3 3 3 3 2 2 2 2 1 1 2 3 4 4 4 4 4 4 4 4
4 4 3 3 3 3 3 3 3 3 3 3 3 3 4 4 3 2 2 2 2 2 2 2 2 2 1 1 1 1 1 1 1 1 2 3 4 4 4 5 5 5 5
4 4 3 3 3 3 3 3 3 3 3 2 2 2 3 4 4 3 2 1 1 2 2 3 2 2 1 1 1 1 1 1 1 1 2 2 3 4 4 5 6 6 6
4 3 3 3 3 3 3 3 3 3 3 2 2 2 3 3 4 3 2 1 1 2 2 2 1 1 1 1 1 2 2 1 1 1 2 2 2 3 4 5 5 6 7
4 4 3 3 3 3 3 3 3 3 2 2 2 2 2 2 3 3 2 1 2 2 1 1 1 1 0 1 1 1 1 1 1 1 1 1 1 2 3 4 5 6 7
3 3 4 3 3 3 3 2 2 2 2 2 1 2 2 2 3 3 2 2 2 2 1 1 1 1 0 1 1 2 2 2 1 1 1 1 1 2 2 3 4 6 7
3 3 3 4 3 3 2 2 2 2 2 1 1 2 2 2 3 3 2 2 2 2 1 1 1 1 1 1 1 2 2 1 1 1 1 1 1 2 2 3 4 5 6
3 3 3 4 4 4 3 3 2 2 1 1 1 1 1 2 3 3 3 2 2 1 1 1 1 1 1 1 1 0 2 2 2 1 1 1 1 2 2 4 4 4 5
1 2 3 4 4 4 3 2 2 2 2 1 1 0 1 1 2 2 3 2 2 2 1 1 2 2 1 0 0 1 1 2 2 2 1 1 1 1 2 4 4 4 4
2 1 2 2 3 3 4 4 4 3 2 2 1 1 1 1 2 2 2 2 2 2 2 1 1 2 2 2 1 0 1 1 1 2 3 2 2 2 3 3 4 4 5
1 1 1 2 3 3 3 4 4 3 2 1 1 1 1 1 1 1 2 2 1 1 2 2 1 2 2 2 2 1 1 1 1 2 3 3 3 2 3 3 3 3 4
1 1 1 2 2 3 3 3 4 4 3 2 1 1 0 0 0 1 1 1 1 1 2 2 2 3 2 2 2 2 2 2 2 2 3 3 4 3 3 3 2 3 4
Wind_Direction
216 205 166 142 139 134 129 126 121 118 115 115 115 112 108 108 110 110 109 105 101 99 97 96 95 93 92 90 89 87 83 81 79 79 79 80 81 81 79 76 75 74 76
181 171 152 140 136 132 131 126 122 121 119 119 119 116 112 109 108 108 108 107 104 101 99 97 94 93 92 91 90 87 85 82 78 76 73 74 78 81 79 77 78 77 75
131 144 146 138 137 131 129 128 125 124 122 123 122 120 118 115 111 109 106 105 105 104 100 96 93 91 90 90 90 88 86 83 79 74 68 64 71 79 80 78 76 76 74
121 124 135 134 131 128 126 124 124 126 127 127 126 125 124 120 116 111 108 106 103 103 101 98 94 91 90 90 89 89 86 83 78 73 68 63 66 79 81 79 76 75 74
99 106 126 132 132 129 128 124 123 126 129 132 130 127 124 122 118 112 108 107 104 101 101 101 97 93 91 89 88 86 85 82 75 72 67 62 62 74 79 79 76 73 73
94 97 119 129 129 129 127 126 125 126 129 131 129 129 127 123 121 119 114 110 108 106 104 103 101 97 94 92 90 88 84 79 75 69 63 58 58 73 79 79 78 74 72
101 93 113 126 128 126 125 121 123 121 120 127 128 127 126 125 127 123 118 113 110 108 105 103 106 101 97 93 91 91 86 80 74 66 57 49 52 67 77 72 72 73 73
105 87 99 125 126 126 127 121 113 113 114 119 124 119 120 121 122 121 117 112 108 107 103 100 108 103 99 96 93 89 84 80 75 65 51 39 41 53 66 62 58 60 62
83 79 78 97 120 124 124 118 113 109 106 108 108 104 109 115 114 117 117 112 107 103 103 99 101 104 101 98 93 89 83 77 72 64 49 27 26 33 49 50 42 42 39
69 65 65 72 89 105 118 116 111 107 103 100 93 89 94 101 102 107 111 112 110 107 106 101 97 94 100 99 94 89 84 77 65 59 40 19 13 9 11 27 24 21 16
67 49 59 66 74 89 107 113 107 102 95 90 90 88 89 83 86 90 100 111 112 111 112 108 100 90 84 89 91 90 85 76 66 50 24 4 2 357 348 343 349 348 350
200 29 58 72 79 86 94 95 91 90 85 80 83 87 85 80 79 84 89 97 98 100 105 103 94 86 80 76 80 86 79 72 63 36 0 347 342 343 346 342 324 315 311
198 231 19 74 87 91 90 91 85 85 84 81 83 87 89 85 76 74 74 78 79 83 82 86 82 75 75 75 71 77 75 68 51 19 347 336 330 326 327 333 330 317 308
183 212 187 118 108 105 102 98 95 89 86 85 87 94 94 86 79 74 71 73 76 86 84 79 79 78 74 74 78 82 76 62 33 6 341 331 323 320 319 319 322 316 306
193 205 199 157 136 122 111 107 99 94 99 103 100 100 106 103 93 83 76 76 77 87 93 87 84 85 77 61 59 70 68 44 12 357 340 333 329 322 317 315 312 308 310
201 204 193 176 159 135 133 132 122 113 110 102 101 108 116 117 113 99 78 73 67 80 95 103 99 92 80 66 40 29 27 349 328 336 334 336 338 330 322 320 320 315 312
202 198 183 178 155 149 148 146 127 126 124 114 120 127 135 134 130 123 103 82 78 91 93 92 82 71 58 35 358 347 356 322 312 318 321 334 341 339 330 323 320 321 319
190 186 183 169 154 156 154 144 131 128 128 130 142 137 147 149 145 133 126 127 111 105 103 97 92 73 28 356 324 319 326 318 290 296 306 318 336 343 338 332 327 323 321
181 178 179 167 164 161 148 135 126 122 125 132 140 137 144 153 152 138 129 116 116 93 83 101 72 113 18 325 299 302 304 282 272 301 287 299 303 323 332 329 332 327 322
170 174 173 165 161 148 129 115 108 107 112 103 133 156 158 157 152 138 120 118 118 110 105 115 108 49 62 298 303 310 297 278 255 269 264 296 311 331 337 331 330 326 322
168 167 173 168 170 154 150 156 161 180 190 180 161 159 156 160 153 137 123 123 123 147 171 153 129 57 7 351 23 331 318 295 257 269 261 262 327 337 342 332 324 318 315
181 181 177 179 178 179 178 179 173 160 160 149 104 76 143 157 156 151 137 147 147 150 149 148 127 116 30 42 110 33 327 326 317 285 274 235 288 340 337 325 320 315 314
208 191 188 189 188 189 169 139 117 97 77 80 84 133 66 113 140 143 139 135 142 155 186 194 158 150 185 277 119 152 180 256 297 303 291 292 316 314 317 323 322 321 316
227 207 180 173 163 159 151 154 153 160 177 196 182 170 86 91 109 134 133 130 146 161 180 209 171 172 177 205 225 216 200 181 227 304 308 304 303 291 291 307 313 320 315
217 177 168 148 142 137 143 153 155 164 164 141 136 142 139 97 105 112 133 133 163 171 179 186 178 185 193 197 199 201 216 226 211 228 279 302 310 288 288 284 290 304 305
51 82 126 140 139 142 148 155 165 172 163 152 174 181 196 56 85 122 144 160 183 181 189 198 197 195 201 203 209 209 206 200 211 220 250 279 290 292 294 282 272 285 293
Height
1509 1510 1512 1514 1515 1517 1518 1519 1520 1521 1522 1523 1524 1525 1526 1527 1527 1528 1529 1529 1530 1530 1531 1531 1532 1532 1533 1533 1534 1534 1535 1535 1535 1536 1537 1537 1537 1538 1538 1539 1539 1540 1540
1508 1510 1512 1514 1515 1517 1518 1519 1520 1521 1522 1523 1524 1525 1526 1527 1528 1528 1529 1530 1530 1530 1531 1531 1532 1533 1533 1534 1534 1535 1535 1536 1536 1537 1537 1538 1538 1539 1539 1539 1540 1540 1541
1508 1510 1512 1513 1515 1517 1518 1519 1520 1521 1522 1523 1524 1525 1526 1527 1528 1528 1529 1530 1530 1531 1531 1532 1532 1533 1533 1534 1534 1535 1536 1536 1537 1537 1538 1538 1539 1539 1539 1540 1540 1541 1541
1508 1509 1511 1513 1515 1516 1518 1519 1520 1521 1522 1523 1524 1525 1526 1527 1528 1528 1529 1530 1530 1531 1531 1532 1532 1533 1534 1534 1534 1535 1536 1536 1537 1537 1538 1538 1539 1539 1540 1540 1541 1541 1542
1508 1509 1511 1513 1515 1516 1517 1518 1520 1521 1522 1523 1524 1525 1525 1526 1527 1528 1529 1529 1530 1531 1531 1532 1532 1533 1534 1534 1535 1535 1536 1536 1537 1537 1538 1539 1539 1540 1540 1540 1541 1541 1542
1508 1509 1511 1513 1514 1515 1517 1518 1519 1520 1521 1522 1523 1524 1525 1526 1527 1528 1528 1529 1530 1531 1531 1532 1532 1533 1533 1534 1535 1535 1536 1536 1537 1537 1538 1539 1539 1539 1540 1540 1541 1541 1541
1507 1509 1511 1512 1513 1515 1516 1517 1518 1519 1521 1522 1523 1524 1524 1525 1526 1527 1528 1529 1529 1530 1531 1532 1532 1532 1533 1533 1534 1535 1535 1536 1536 1537 1538 1538 1539 1539 1540 1540 1540 1540 1541
1507 1509 1510 1512 1513 1514 1515 1516 1517 1518 1520 1521 1522 1523 1523 1524 1525 1526 1527 1528 1529 1529 1530 1531 1531 1532 1532 1533 1533 1534 1535 1535 1536 1536 1537 1538 1538 1539 1539 1539 1539 1540 1540
1507 1508 1509 1511 1512 1513 1514 1515 1516 1517 1518 1520 1521 1521 1522 1523 1524 1525 1527 1527 1528 1529 1529 1530 1531 1531 1531 1532 1533 1533 1534 1534 1535 1536 1536 1537 1537 1538 1538 1538 1538 1538 1539
1506 1507 1508 1509 1511 1512 1513 1514 1515 1516 1517 1518 1519 1520 1521 1522 1523 1524 1525 1526 1527 1527 1528 1529 1530 1530 1531 1531 1532 1532 1533 1533 1534 1535 1535 1536 1536 1536 1537 1537 1537 1537 1537
1505 1506 1507 1508 1509 1511 1512 1513 1514 1515 1516 1517 1518 1519 1520 1521 1521 1523 1524 1525 1525 1526 1527 1527 1528 1529 1529 1530 1530 1531 1531 1532 1533 1533 1534 1534 1535 1535 1535 1536 1536 1536 1536
1503 1504 1505 1506 1507 1509 1510 1511 1512 1513 1514 1515 1516 1517 1518 1519 1520 1521 1522 1523 1524 1525 1525 1526 1526 1527 1528 1528 1529 1529 1530 1530 1531 1532 1532 1533 1533 1534 1534 1534 1534 1534 1534
1501 1502 1504 1505 1506 1507 1508 1509 1510 1511 1512 1513 1514 1515 1516 1517 1518 1519 1520 1521 1522 1523 1524 1524 1525 1525 1526 1527 1527 1528 1528 1529 1529 1530 1530 1531 1531 1532 1532 1532 1532 1532 1532
1500 1500 1502 1503 1504 1505 1506 1507 1508 1509 1510 1511 1512 1513 1514 1515 1516 1517 1518 1519 1520 1521 1522 1522 1523 1523 1524 1525 1526 1526 1526 1527 1527 1528 1528 1529 1529 1529 1530 1530 1530 1530 1530
1497 1498 1499 1501 1502 1503 1504 1504 1505 1507 1508 1509 1510 1511 1512 1513 1514 1515 1516 1517 1518 1519 1520 1520 1521 1521 1522 1523 1524 1524 1524 1525 1525 1526 1526 1526 1526 1527 1527 1527 1527 1527 1527
1495 1496 1497 1498 1499 1500 1501 1502 1503 1505 1506 1507 1508 1509 1510 1511 1512 1513 1514 1515 1516 1516 1517 1518 1519 1519 1520 1520 1521 1522 1522 1522 1523 1523 1523 1523 1524 1524 1524 1524 1524 1524 1524
1492 1494 1494 1495 1497 1498 1499 1501 1502 1503 1504 1505 1506 1507 1508 1509 1510 1511 1512 1513 1513 1514 1515 1516 1516 1517 1517 1518 1518 1519 1519 1520 1520 1520 1521 1521 1521 1521 1521 1521 1521 1521 1521
1491 1491 1492 1493 1494 1496 1497 1498 1499 1500 1502 1503 1503 1504 1506 1506 1507 1508 1509 1510 1511 1511 1512 1513 1513 1514 1514 1515 1515 1516 1516 1517 1517 1517 1517 1518 1518 1518 1518 1518 1518 1517 1517
1488 1489 1489 1491 1492 1493 1495 1496 1497 1498 1499 1500 1501 1502 1503 1504 1505 1505 1506 1507 1508 1508 1509 1510 1510 1511 1511 1512 1512 1512 1513 1513 1514 1514 1514 1514 1514 1514 1514 1514 1514 1514 1514
1486 1486 1487 1488 1489 1490 1492 1493 1494 1495 1496 1497 1498 1499 1500 1501 1502 1503 1503 1504 1505 1506 1507 1507 1507 1508 1508 1508 1509 1509 1509 1510 1510 1510 1511 1511 1511 1511 1511 1511 1511 1510 1510
1483 1483 1484 1485 1486 1487 1488 1489 1490 1491 1493 1494 1495 1496 1497 1498 1499 1500 1500 1501 1502 1503 1503 1504 1504 1505 1505 1505 1505 1505 1505 1506 1506 1506 1507 1507 1507 1507 1507 1507 1507 1507 1506
1479 1480 1480 1481 1483 1484 1485 1486 1487 1488 1489 1491 1492 1493 1494 1495 1496 1496 1497 1498 1499 1499 1500 1500 1501 1501 1502 1502 1503 1502 1502 1503 1502 1502 1503 1503 1504 1504 1503 1503 1503 1502 1502
1476 1476 1477 1478 1479 1480 1481 1483 1484 1485 1486 1487 1488 1489 1490 1491 1492 1493 1494 1495 1495 1496 1496 1497 1498 1498 1499 1499 1500 1501 1500 1499 1499 1499 1499 1499 1500 1500 1499 1499 1499 1498 1498
1473 1474 1474 1475 1476 1477 1478 1479 1480 1481 1482 1483 1484 1485 1487 1488 1488 1489 1490 1491 1492 1492 1493 1494 1494 1495 1496 1496 1497 1497 1499 1498 1498 1495 1495 1495 1495 1496 1496 1495 1495 1494 1493
1471 1471 1472 1472 1473 1475 1476 1477 1478 1479 1480 1481 1482 1483 1484 1485 1485 1486 1487 1487 1488 1489 1490 1490 1491 1492 1492 1492 1493 1494 1494 1494 1494 1494 1492 1491 1491 1492 1492 1492 1491 1490 1489
1469 1469 1470 1470 1471 1472 1473 1474 1475 1476 1477 1478 1479 1479 1480 1481 1482 1483 1484 1484 1485 1486 1486 1487 1487 1488 1488 1489 1489 1490 1490 1490 1490 1490 1489 1487 1486 1487 1487 1487 1486 1486 1485